SENTINEL-2B

Last updated on Sun Dec 14 2025 00:02:32 GMT+0000 (Coordinated Universal Time)

1 42063U 17013A 25347.26342984 .00000323 00000+0 13992-3 0 9990 2 42063 98.5710 59.7016 0001155 93.5343 266.5972 14.30816684458054
UTC large
Height (km)
Speed (km/s)
/
Latitude / Longitude
Inclination (degrees)
Orbital Period (minutes)
Azimuth
Elevation
Range (km)
Doppler Factor

Next 0 passes for location: London (51.5072 / 0.1276)

Sorry there are no passes over London.